Skip Page Navigation
NASA JPL Caltech
NASA Logo - Jet Propulsion Laboratory + View the NASA Portal
+ Center for Near-Earth Object Studies
JPL Home Earth Solar System Stars & Galaxies Technology
JPL Solar System Dynamics
BODIES ORBITS EPHEMERIDES TOOLS PHYSICAL DATA DISCOVERY FAQ SITE MAP
JPL Small-Body Database Browser
Search: [ help ]  
46807 (1998 KT45)
Classification: Main-belt Asteroid          SPK-ID: 2046807
Ephemeris | Orbit Diagram | Orbital Elements | Mission Design | Physical Parameters | Discovery Circumstances ]

[ show orbit diagram ]
Orbital Elements at Epoch 2459200.5 (2020-Dec-17.0) TDB
Reference: JPL 26 (heliocentric ecliptic J2000)
 Element Value Uncertainty (1-sigma)   Units 
e .2569863854554242 3.7395e-08  
a 2.346875032085696 6.6826e-09 au
q 1.74376010047441 8.6117e-08 au
i 4.856296380607348 3.9503e-06 deg
node 63.01480101702217 5.1909e-05 deg
peri 241.8021539558476 5.3072e-05 deg
M 65.45695246199968 1.1562e-05 deg
tp 2458961.726209059628
(2020-Apr-22.22620906)
4.192e-05 TDB
period 1313.207558638425
3.60
5.6089e-06
1.536e-08
d
yr
n .2741379286403586 1.1709e-09 deg/d
Q 2.949989963696981 8.4e-09 au
  Orbit Determination Parameters
   # obs. used (total)      1127  
   data-arc span      9216 days (25.23 yr)  
   first obs. used      1995-10-20  
   last obs. used      2021-01-12  
   planetary ephem.      DE441  
   SB-pert. ephem.      SB441-N16  
   condition code      0  
   norm. resid. RMS      .52842  
   source      ORB  
   producer      Otto Matic  
   solution date      2021-Apr-13 09:52:33  

Additional Information
 Earth MOID = .733196 au 
 Jupiter MOID = 2.31761 au 
 T_jup = 3.511 
[ show covariance matrix ]

Ephemeris | Orbit Diagram | Orbital Elements | Mission Design | Physical Parameters | Discovery Circumstances ]

Physical Parameter Table
Parameter Symbol Value Units Sigma Reference Notes
absolute magnitude H 15.68   n/a E2021B10  

46807 (1998 KT45)          Discovered 1998-May-22 by LINEAR at Socorro
Reference: 20020921/Numbers.arcLast Updated: 2004-04-19

Alternate Designations
 1998 KT45 = 2001 FV153 
Ephemeris | Orbit Diagram | Orbital Elements | Mission Design | Physical Parameters | Discovery Circumstances ]
ABOUT SSD CREDITS/AWARDS PRIVACY/COPYRIGHT GLOSSARY LINKS
FirstGov 2021-Jun-25 13:48 UT
(server date/time)  
NASA Home Page
Site Manager:   Ryan S. Park
Webmaster  Alan B. Chamberlin